Clinton, IA

3:10 AM CST on January 23, 2018 (GMT -0600)
Clinton Municipal

Weather History for KCWI - October, 2012

Change the Weather History Date:

Friday, October 12, 2012

  Actual Average Record
Temperature  
Mean Temperature 42 °F -  
Max Temperature 55 °F 66 °F 84 °F (1956)
Min Temperature 30 °F 43 °F 24 °F (1988)
Degree Days  
Heating Degree Days 22    
Moisture  
Dew Point 25 °F    
Average Humidity 49    
Maximum Humidity 81    
Minimum Humidity 26    
Precipitation  
Precipitation 0.00 in - - ()
Sea Level Pressure  
Sea Level Pressure 30.37 in    
Wind  
Wind Speed 10 mph (East)    
Max Wind Speed 15 mph    
Max Gust Speed 18 mph    
Visibility 10 miles    
Events      
Averages and records for this station are not official NWS values.
T = Trace of Precipitation, MM = Missing Value Source: NWS Daily Summary

Daily Weather History Graph

Daily Weather History Graph

Search for Another Location

Airport or City:

Trip Planner

Search our weather history database for the weather conditions in past years. The results will help you decide how hot, cold, wet, or windy it might be!

Date:

Astronomy

Oct. 12, 2012 Rise Set
Actual Time 7:10 AM CDT 6:23 PM CDT
Civil Twilight 6:42 AM CDT 6:51 PM CDT
Nautical Twilight 6:10 AM CDT 7:23 PM CDT
Astronomical Twilight 5:38 AM CDT 7:56 PM CDT
Moon 3:51 AM CDT (10/12) 4:35 PM CDT (10/12)
Length of Visible Light 12h 08m
Length of Day
11h 13m
Waning Crescent, 10% of the Moon is Illuminated
Oct 12
Waning Crescent
Oct 15
New
Oct 21
First Quarter
Oct 29
Full
Nov 6
Last Quarter

Hourly Weather History & Observations

Time (CDT) Temp. Windchill Dew Point Humidity Pressure Visibility Wind Dir Wind Speed Gust Speed Precip Events Conditions
12:15 AM 42.8 °F 39.3 °F 35.6 °F 76% 30.33 in 10.0 mi North 5.8 mph - N/A   Partly Cloudy
12:35 AM 41.0 °F 36.4 °F 33.8 °F 76% 30.33 in 10.0 mi North 6.9 mph - N/A   Partly Cloudy
12:55 AM 39.2 °F 33.6 °F 33.8 °F 81% 30.34 in 10.0 mi North 8.1 mph - N/A   Scattered Clouds
1:15 AM 39.2 °F 34.2 °F 32.0 °F 75% 30.34 in 10.0 mi North 6.9 mph - N/A   Mostly Cloudy
1:35 AM 39.2 °F 33.6 °F 30.2 °F 70% 30.35 in 10.0 mi North 8.1 mph - N/A   Partly Cloudy
1:55 AM 39.2 °F 32.0 °F 30.2 °F 70% 30.36 in 10.0 mi NNE 11.5 mph - N/A   Clear
2:15 AM 41.0 °F 34.3 °F 30.2 °F 65% 30.37 in 10.0 mi NNE 11.5 mph - N/A   Scattered Clouds
2:35 AM 42.8 °F 36.6 °F 28.4 °F 57% 30.38 in 10.0 mi NNE 11.5 mph - N/A   Overcast
2:55 AM 42.8 °F 36.6 °F 26.6 °F 53% 30.37 in 10.0 mi NNE 11.5 mph - N/A   Overcast
3:15 AM 42.8 °F 35.8 °F 26.6 °F 53% 30.38 in 10.0 mi NNE 13.8 mph - N/A   Overcast
3:35 AM 39.2 °F 32.0 °F 26.6 °F 61% 30.38 in 10.0 mi NNE 11.5 mph - N/A   Overcast
3:55 AM 39.2 °F 32.0 °F 24.8 °F 56% 30.39 in 10.0 mi NNE 11.5 mph - N/A   Overcast
4:15 AM 39.2 °F 32.5 °F 24.8 °F 56% 30.39 in 10.0 mi NE 10.4 mph - N/A   Overcast
4:35 AM 37.4 °F 29.3 °F 24.8 °F 60% 30.40 in 10.0 mi NE 12.7 mph - N/A   Scattered Clouds
4:55 AM 37.4 °F 29.8 °F 24.8 °F 60% 30.40 in 10.0 mi NE 11.5 mph - N/A   Clear
5:15 AM 35.6 °F 27.5 °F 23.0 °F 60% 30.40 in 10.0 mi NE 11.5 mph - N/A   Clear
5:35 AM 35.6 °F 28.6 °F 23.0 °F 60% 30.41 in 10.0 mi NE 9.2 mph - N/A   Clear
5:55 AM 33.8 °F 27.0 °F 23.0 °F 65% 30.42 in 10.0 mi NE 8.1 mph - N/A   Clear
6:15 AM 33.8 °F 27.7 °F 23.0 °F 65% 30.42 in 10.0 mi NE 6.9 mph - N/A   Clear
6:35 AM 32.0 °F 26.4 °F 23.0 °F 69% 30.43 in 10.0 mi NE 5.8 mph - N/A   Clear
6:55 AM 30.2 °F 22.6 °F 23.0 °F 75% 30.44 in 10.0 mi NE 8.1 mph - N/A   Clear
7:15 AM 30.2 °F 23.4 °F 23.0 °F 75% 30.44 in 10.0 mi NE 6.9 mph - N/A   Clear
7:35 AM 30.2 °F 21.3 °F 24.8 °F 80% 30.44 in 10.0 mi NE 10.4 mph - N/A   Clear
7:55 AM 33.8 °F 27.0 °F 24.8 °F 70% 30.45 in 10.0 mi NE 8.1 mph - N/A   Clear
8:15 AM 35.6 °F 29.2 °F 26.6 °F 70% 30.46 in 10.0 mi NE 8.1 mph - N/A   Clear
8:35 AM 37.4 °F 29.8 °F 26.6 °F 65% 30.46 in 10.0 mi ENE 11.5 mph - N/A   Clear
8:55 AM 39.2 °F 32.5 °F 24.8 °F 56% 30.47 in 10.0 mi East 10.4 mph - N/A   Clear
9:15 AM 41.0 °F 34.3 °F 26.6 °F 57% 30.48 in 10.0 mi East 11.5 mph - N/A   Clear
9:35 AM 42.8 °F 37.5 °F 24.8 °F 49% 30.48 in 10.0 mi East 9.2 mph - N/A   Clear
9:55 AM 42.8 °F 36.6 °F 24.8 °F 49% 30.48 in 10.0 mi East 11.5 mph - N/A   Clear
10:15 AM 44.6 °F 38.4 °F 24.8 °F 46% 30.48 in 10.0 mi ESE 12.7 mph 17.3 mph N/A   Clear
10:35 AM 46.4 °F 40.4 °F 23.0 °F 40% 30.48 in 10.0 mi East 13.8 mph 18.4 mph N/A   Clear
10:55 AM 46.4 °F 41.5 °F 24.8 °F 43% 30.48 in 10.0 mi East 10.4 mph 18.4 mph N/A   Clear
11:15 AM 48.2 °F - 23.0 °F 37% 30.48 in 10.0 mi ESE 11.5 mph 17.3 mph N/A   Clear
11:35 AM 48.2 °F - 21.2 °F 34% 30.47 in 10.0 mi East 10.4 mph - N/A   Clear
11:55 AM 48.2 °F - 21.2 °F 34% 30.47 in 10.0 mi ENE 10.4 mph 17.3 mph N/A   Clear
12:15 PM 50.0 °F - 21.2 °F 32% 30.46 in 10.0 mi East 11.5 mph - N/A   Clear
12:35 PM 50.0 °F - 21.2 °F 32% 30.45 in 10.0 mi SE 9.2 mph - N/A   Clear
12:55 PM 51.8 °F - 19.4 °F 28% 30.44 in 10.0 mi ENE 5.8 mph - N/A   Clear
1:35 PM 53.6 °F - 19.4 °F 26% 30.41 in 10.0 mi ESE 13.8 mph - N/A   Clear
1:55 PM 53.6 °F - 21.2 °F 28% 30.40 in 10.0 mi East 12.7 mph 18.4 mph N/A   Clear
2:15 PM 53.6 °F - 23.0 °F 30% 30.40 in 10.0 mi ESE 12.7 mph 18.4 mph N/A   Clear
2:35 PM 55.4 °F - 23.0 °F 29% 30.39 in 10.0 mi SSE 11.5 mph - N/A   Clear
2:55 PM 55.4 °F - 21.2 °F 26% 30.38 in 10.0 mi SSE 11.5 mph - N/A   Clear
3:15 PM 55.4 °F - 23.0 °F 29% 30.37 in 10.0 mi SE 6.9 mph - N/A   Clear
3:35 PM 55.4 °F - 21.2 °F 26% 30.36 in 10.0 mi South 10.4 mph 17.3 mph N/A   Clear
3:55 PM 55.4 °F - 21.2 °F 26% 30.35 in 10.0 mi SE 10.4 mph - N/A   Clear
4:15 PM 55.4 °F - 21.2 °F 26% 30.34 in 10.0 mi SE 11.5 mph - N/A   Clear
4:35 PM 55.4 °F - 21.2 °F 26% 30.34 in 10.0 mi SE 10.4 mph - N/A   Clear
4:55 PM 55.4 °F - 21.2 °F 26% 30.34 in 10.0 mi SSE 11.5 mph - N/A   Clear
5:15 PM 55.4 °F - 21.2 °F 26% 30.32 in 10.0 mi SSE 11.5 mph - N/A   Clear
5:55 PM 53.6 °F - 24.8 °F 33% 30.32 in 10.0 mi SE 8.1 mph - N/A   Clear
6:15 PM 51.8 °F - 24.8 °F 35% 30.32 in 10.0 mi SSE 8.1 mph - N/A   Clear
6:35 PM 50.0 °F - 24.8 °F 37% 30.32 in 10.0 mi SSE 6.9 mph - N/A   Clear
6:55 PM 46.4 °F 42.9 °F 24.8 °F 43% 30.30 in 9.0 mi ESE 6.9 mph - N/A   Clear
7:15 PM 44.6 °F 40.7 °F 24.8 °F 46% 30.29 in 10.0 mi ESE 6.9 mph - N/A   Clear
7:35 PM 44.6 °F 40.2 °F 26.6 °F 49% 30.29 in 10.0 mi ESE 8.1 mph - N/A   Clear
7:55 PM 46.4 °F 41.5 °F 28.4 °F 50% 30.27 in 10.0 mi ESE 10.4 mph - N/A   Clear
8:15 PM 46.4 °F 41.5 °F 28.4 °F 50% 30.26 in 10.0 mi ESE 10.4 mph - N/A   Clear
8:35 PM 46.4 °F 41.5 °F 28.4 °F 50% 30.26 in 10.0 mi ESE 10.4 mph - N/A   Clear
8:55 PM 46.4 °F 41.9 °F 28.4 °F 50% 30.26 in 10.0 mi ESE 9.2 mph - N/A   Clear
9:15 PM 48.2 °F - 28.4 °F 46% 30.26 in 10.0 mi ESE 11.5 mph - N/A   Clear
9:35 PM 48.2 °F - 28.4 °F 46% 30.25 in 10.0 mi SE 12.7 mph - N/A   Clear
9:55 PM 48.2 °F - 28.4 °F 46% 30.25 in 10.0 mi SE 10.4 mph - N/A   Clear
10:15 PM 48.2 °F - 26.6 °F 43% 30.26 in 10.0 mi SSE 12.7 mph - N/A   Clear
10:35 PM 50.0 °F - 26.6 °F 40% 30.25 in 10.0 mi SE 13.8 mph - N/A   Clear
10:55 PM 50.0 °F - 26.6 °F 40% 30.24 in 10.0 mi SSE 15.0 mph - N/A   Clear
11:15 PM 50.0 °F - 26.6 °F 40% 30.24 in 10.0 mi SE 12.7 mph 17.3 mph N/A   Clear
11:35 PM 50.0 °F - 26.6 °F 40% 30.24 in 10.0 mi SSE 12.7 mph - N/A   Mostly Cloudy
11:55 PM 48.2 °F - 28.4 °F 46% 30.23 in 10.0 mi SE 12.7 mph - N/A   Overcast